This is the latest recevied weather packets stored in our database for station/object HB9EYW-6. If no packets are shown the sender has not sent any weather packets the latest 1 day(s).
| Time | Temp. | Humidity | Pressure | Rain* | Wind** | Luminosity | Snow |
|---|---|---|---|---|---|---|---|
| 1777988704 | 18.89° C | 48% | 0 hPa | 0 mm | 0.45 m/s, 255° | - | - |
| 1777988404 | 19.44° C | 44% | 0 hPa | 0 mm | 1.34 m/s, 162° | - | - |
| 1777988104 | 21.11° C | 42% | 0 hPa | 0 mm | 0.89 m/s, 143° | - | - |
| 1777987804 | 21.67° C | 38% | 0 hPa | 0 mm | 0.89 m/s, 150° | - | - |
| 1777987504 | 22.78° C | 38% | 0 hPa | 0 mm | 0 m/s | - | - |
| 1777987204 | 22.78° C | 38% | 0 hPa | 0 mm | 0.45 m/s, 200° | - | - |
| 1777986904 | 22.78° C | 37% | 0 hPa | 0 mm | 0 m/s | - | - |
| 1777986604 | 22.78° C | 37% | 0 hPa | 0 mm | 0.89 m/s, 273° | - | - |
| 1777986304 | 22.22° C | 39% | 0 hPa | 0 mm | 0 m/s | - | - |
| 1777986004 | 22.22° C | 39% | 0 hPa | 0 mm | 0 m/s | - | - |
| 1777985704 | 22.78° C | 38% | 0 hPa | 0 mm | 0 m/s | - | - |
| 1777985404 | 22.78° C | 43% | 0 hPa | 0 mm | 0 m/s | - | - |
| 1777985104 | 22.22° C | 44% | 0 hPa | 0 mm | 0.45 m/s, 204° | - | - |
| 1777984804 | 21.67° C | 44% | 0 hPa | 0 mm | 0 m/s | - | - |
| 1777984504 | 21.67° C | 45% | 0 hPa | 0 mm | 0.45 m/s, 168° | - | - |
| 1777984204 | 21.11° C | 47% | 0 hPa | 0 mm | 0 m/s | - | - |
| 1777983904 | 20.56° C | 49% | 0 hPa | 0 mm | 0 m/s | - | - |
| 1777983604 | 20.56° C | 50% | 0 hPa | 0 mm | 0 m/s | - | - |
| 1777983304 | 20.56° C | 49% | 0 hPa | 0 mm | 0 m/s | - | - |
| 1777983015 | 20.56° C | 50% | 0 hPa | 0 mm | 0 m/s | - | - |
| 1777982704 | 21.11° C | 48% | 0 hPa | 0 mm | 0 m/s | - | - |
| 1777982404 | 21.11° C | 48% | 0 hPa | 0 mm | 0 m/s | - | - |
| 1777982104 | 21.11° C | 51% | 0 hPa | 0 mm | 0.45 m/s, 151° | - | - |
| 1777981804 | 21.11° C | 52% | 0 hPa | 0 mm | 0 m/s | - | - |
| 1777981504 | 20.56° C | 54% | 0 hPa | 0 mm | 0 m/s | - | - |
* Rain latest hour (hover to see other rain measurements)
** Current wind speed in m/s (hover to see current wind gust speed)